BEIDOU-3 M18 (C37)

Last updated on Sat Apr 11 2026 00:03:32 GMT+0000 (Coordinated Universal Time)

1 43707U 18093B 26099.44269747 -.00000007 00000+0 00000+0 0 9997 2 43707 54.1688 184.6211 0006669 328.3963 31.6088 1.86226595 50251
UTC large
Height (km)
Speed (km/s)
/
Latitude / Longitude
Inclination (degrees)
Orbital Period (minutes)
Azimuth
Elevation
Range (km)
Doppler Factor

Next 0 passes for location: London (51.5072 / 0.1276)

Sorry there are no passes over London.